Regional Weather Roundup
Issued by NWS

Home | Current Version | Previous Version | Text Only | Print | Product List | Glossary Off
Versions: 1 2 3 4 5 6 7 8 9 10 11 12 13 14 15 16 17 18 19 20 21 22 23 24 25 26 27 28 29 30 31 32 33 34 35 36 37 38 39 40 41 42 43 44 45 46 47 48 49 50

000
ASUS43 KLMK 231210
RWRKY
KENTUCKY REGIONAL WEATHER ROUNDUP
NATIONAL WEATHER SERVICE LOUISVILLE KY
700 AM EST MON JAN 23 2017

NOTE "FAIR" INDICATES FEW OR NO CLOUDS BELOW 12,000 FEET
WITH NO SIGNIFICANT WEATHER AND/OR OBSTRUCTIONS TO VISIBILITY.

KYZ001>023-026-027-061>063-070>075-231300-
WESTERN AND SOUTH CENTRAL KENTUCKY

CITY           SKY/WX    TMP DP  RH WIND       PRES   REMARKS
PADUCAH        PTCLDY    41  34  76 NW16G23   29.65R
HENDERSON      CLOUDY    43  36  75 NW23G30   29.61R
OWENSBORO      CLOUDY    45  42  89 N17G23    29.59R
HOPKINSVILLE   CLOUDY    45  41  88 NW16G29   29.57R
BOWLING GREEN  CLOUDY    51  46  83 NW15G26   29.47R
GLASGOW        DRIZZLE   52  49  90 NW15G22   29.42R
$$

KYZ024-025-028>034-038-045-046-053-231300-
NORTH CENTRAL KENTUCKY

CITY           SKY/WX    TMP DP  RH WIND       PRES   REMARKS
LOUISVILLE/SDF CLOUDY    53  47  79 N21       29.45R
LOUISVILLE/LOU CLOUDY    53  47  79 N14G23    29.46R
FORT KNOX      CLOUDY    52  47  84 NW16G24   29.45R
$$

KYZ035>037-039>044-047>052-055>060-089>105-231300-
NORTHEAST KENTUCKY

CITY           SKY/WX    TMP DP  RH WIND       PRES   REMARKS
LEXINGTON      RAIN      52  49  89 N14G23    29.38R FOG
COVINGTON      LGT RAIN  48  46  93 N16G23    29.45R FOG
FRANKFORT      LGT RAIN  51  47  86 N14G22    29.40R
$$

KYZ054-064>069-076>088-106>120-231300-
SOUTHEAST KENTUCKY

CITY           SKY/WX    TMP DP  RH WIND       PRES   REMARKS
JACKSON        LGT RAIN  51  49  92 VRB6      29.30R
LONDON         LGT RAIN  52  49  89 N12       29.30R
SOMERSET       RAIN      52  52 100 N10G18    29.34R
MIDDLESBORO    DRIZZLE   50  50 100 CALM      29.26R
MONTICELLO     LGT RAIN  53  51  93 N17       29.35R
$$




USA.gov is the U.S. government's official web portal to all federal, state and local government web resources and services.